Location: G�yn�k
(36.6721°N, 30.5542°E)
Time: 21:12:00
(UTC+00:00)

BREEZE-M DEB (TANK) - Pass Details

Date: 03 October 2020
Orbit: 333 x 12040 km, 49.7° (Epoch: 26 October)

Event Time Altitude Azimuth Distance (km) Brightness Sun altitude
Rises 01:36:09 0° 198° (SSW) 13,070 8.8 -28.3°
Reaches altitude 10° 01:46:11 10° 195° (SSW) 13,296 8.8 -26.4°
Maximum altitude 03:22:02 74° 124° (SE) 10,256 8.6 -7.4°
Drops below altitude 10° 04:04:19 10° 53° (NE) 7,687 8.7 1.0°
Sets 04:08:02 0° 52° (NE) 7,905 8.8 1.8°
